Time,TemperatureF,DewpointF,PressureIn,WindDirection,WindDirectionDegrees,WindSpeedMPH,WindSpeedGustMPH,Humidity,HourlyPrecipIn,Conditions,Clouds,dailyrainin,SolarRadiationWatts/m^2,SoftwareType,DateUTC
2013-04-11 00:00:00,45.1,43.8,29.90,NW,325,0.0,2.0,95,0.00,,---,0.38,0.00,VWS V14.01,2013-04-11 04:00:00,
2013-04-11 00:05:00,45.2,43.9,29.91,NW,325,0.0,0.0,95,0.00,,---,0.00,0.00,VWS V14.01,2013-04-11 04:05:00,
2013-04-11 00:10:00,45.2,43.9,29.91,NW,325,1.0,1.0,95,0.00,,---,0.00,0.00,VWS V14.01,2013-04-11 04:10:00,
2013-04-11 00:15:00,45.3,44.0,29.92,NW,325,0.0,1.0,95,0.00,,---,0.00,0.00,VWS V14.01,2013-04-11 04:15:00,
2013-04-11 00:20:00,45.4,44.0,29.91,NW,325,0.0,2.0,95,0.02,,---,0.02,0.00,VWS V14.01,2013-04-11 04:20:00,
2013-04-11 00:25:00,45.5,44.2,29.91,NNW,342,1.0,2.0,95,0.02,,---,0.02,0.00,VWS V14.01,2013-04-11 04:25:00,
2013-04-11 00:30:00,45.5,44.2,29.90,ENE,68,2.0,2.0,95,0.04,,---,0.04,0.00,VWS V14.01,2013-04-11 04:30:00,
2013-04-11 00:35:00,45.6,44.2,29.90,ENE,68,1.0,2.0,95,0.04,,---,0.04,0.00,VWS V14.01,2013-04-11 04:35:00,
2013-04-11 00:40:00,45.6,44.2,29.90,ENE,68,2.0,3.0,95,0.06,,---,0.06,0.00,VWS V14.01,2013-04-11 04:40:00,
2013-04-11 00:45:00,45.5,44.2,29.89,East,87,3.0,6.0,95,0.06,,---,0.06,0.00,VWS V14.01,2013-04-11 04:45:00,
2013-04-11 00:50:00,45.4,44.0,29.89,East,99,6.0,6.0,95,0.06,,---,0.06,0.00,VWS V14.01,2013-04-11 04:50:00,
2013-04-11 00:55:00,45.3,44.0,29.88,East,98,6.0,8.0,95,0.06,,---,0.06,0.00,VWS V14.01,2013-04-11 04:55:00,
2013-04-11 01:00:00,45.2,44.1,29.88,ESE,105,5.0,8.0,96,0.06,,---,0.06,0.00,VWS V14.01,2013-04-11 05:00:00,
2013-04-11 01:05:00,45.1,43.8,29.87,ESE,109,7.0,7.0,95,0.06,,---,0.06,0.00,VWS V14.01,2013-04-11 05:05:00,
2013-04-11 01:10:00,45.1,43.8,29.87,ESE,107,7.0,7.0,95,0.06,,---,0.06,0.00,VWS V14.01,2013-04-11 05:10:00,
2013-04-11 01:15:00,45.2,44.1,29.87,ESE,106,4.0,7.0,96,0.06,,---,0.06,0.00,VWS V14.01,2013-04-11 05:15:00,
2013-04-11 01:20:00,45.2,44.1,29.88,East,85,1.0,6.0,96,0.06,,---,0.06,0.00,VWS V14.01,2013-04-11 05:20:00,
2013-04-11 01:25:00,45.2,44.1,29.88,East,85,0.0,6.0,96,0.06,,---,0.06,0.00,VWS V14.01,2013-04-11 05:25:00,
2013-04-11 01:30:00,45.2,44.1,29.90,East,85,0.0,6.0,96,0.06,,---,0.06,0.00,VWS V14.01,2013-04-11 05:30:00,
2013-04-11 01:35:00,45.2,44.1,29.88,SE,124,2.0,4.0,96,0.02,,---,0.06,0.00,VWS V14.01,2013-04-11 05:35:00,
2013-04-11 01:40:00,45.2,44.1,29.88,SE,128,4.0,5.0,96,0.02,,---,0.06,0.00,VWS V14.01,2013-04-11 05:40:00,
2013-04-11 01:45:00,45.1,44.0,29.87,ESE,122,5.0,6.0,96,0.02,,---,0.06,0.00,VWS V14.01,2013-04-11 05:45:00,
2013-04-11 01:50:00,45.0,43.9,29.86,ESE,119,4.0,7.0,96,0.00,,---,0.06,0.00,VWS V14.01,2013-04-11 05:50:00,
2013-04-11 01:55:00,45.0,43.9,29.86,ESE,113,1.0,7.0,96,0.00,,---,0.06,0.00,VWS V14.01,2013-04-11 05:55:00,
2013-04-11 02:00:00,44.9,43.8,29.86,ESE,113,0.0,7.0,96,0.00,,---,0.06,0.00,VWS V14.01,2013-04-11 06:00:00,
2013-04-11 02:05:00,44.9,43.8,29.85,ESE,113,4.0,4.0,96,0.00,,---,0.06,0.00,VWS V14.01,2013-04-11 06:05:00,
2013-04-11 02:10:00,44.8,43.7,29.84,East,93,5.0,5.0,96,0.00,,---,0.06,0.00,VWS V14.01,2013-04-11 06:10:00,
2013-04-11 02:15:00,44.8,43.7,29.83,East,92,5.0,6.0,96,0.00,,---,0.06,0.00,VWS V14.01,2013-04-11 06:15:00,
2013-04-11 02:20:00,44.7,43.6,29.83,East,91,0.0,4.0,96,0.00,,---,0.06,0.00,VWS V14.01,2013-04-11 06:20:00,
2013-04-11 02:25:00,44.7,43.6,29.84,East,90,0.0,4.0,96,0.00,,---,0.06,0.00,VWS V14.01,2013-04-11 06:25:00,
2013-04-11 02:30:00,44.7,43.6,29.84,East,90,0.0,4.0,96,0.00,,---,0.06,0.00,VWS V14.01,2013-04-11 06:30:00,
2013-04-11 02:35:00,44.7,43.6,29.85,East,90,0.0,0.0,96,0.00,,---,0.06,0.00,VWS V14.01,2013-04-11 06:35:00,
2013-04-11 02:40:00,44.7,43.6,29.84,East,90,0.0,0.0,96,0.00,,---,0.06,0.00,VWS V14.01,2013-04-11 06:40:00,
2013-04-11 02:45:00,44.7,43.6,29.84,East,90,0.0,0.0,96,0.00,,---,0.06,0.00,VWS V14.01,2013-04-11 06:45:00,
2013-04-11 02:50:00,44.7,43.6,29.84,East,90,0.0,0.0,96,0.00,,---,0.06,0.00,VWS V14.01,2013-04-11 06:50:00,
2013-04-11 02:55:00,44.6,43.5,29.85,East,90,0.0,0.0,96,0.00,,---,0.06,0.00,VWS V14.01,2013-04-11 06:55:00,
2013-04-11 03:00:00,44.7,43.6,29.85,East,90,0.0,0.0,96,0.00,,---,0.06,0.00,VWS V14.01,2013-04-11 07:00:00,
2013-04-11 03:05:00,44.7,43.6,29.85,East,100,1.0,2.0,96,0.00,,---,0.06,0.00,VWS V14.01,2013-04-11 07:05:00,
2013-04-11 03:10:00,44.7,43.6,29.84,East,100,0.0,2.0,96,0.00,,---,0.06,0.00,VWS V14.01,2013-04-11 07:10:00,
2013-04-11 03:15:00,44.7,43.6,29.84,East,100,0.0,2.0,96,0.00,,---,0.06,0.00,VWS V14.01,2013-04-11 07:15:00,
2013-04-11 03:20:00,44.7,43.6,29.84,East,100,0.0,0.0,96,0.00,,---,0.06,0.00,VWS V14.01,2013-04-11 07:20:00,
2013-04-11 03:25:00,44.7,43.6,29.84,East,100,0.0,0.0,96,0.00,,---,0.06,0.00,VWS V14.01,2013-04-11 07:25:00,
2013-04-11 03:30:00,44.8,43.7,29.84,East,100,0.0,0.0,96,0.00,,---,0.06,0.00,VWS V14.01,2013-04-11 07:30:00,
2013-04-11 03:35:00,44.8,43.7,29.85,East,100,0.0,0.0,96,0.00,,---,0.06,0.00,VWS V14.01,2013-04-11 07:35:00,
2013-04-11 03:40:00,44.8,43.7,29.85,ESE,119,1.0,2.0,96,0.00,,---,0.06,0.00,VWS V14.01,2013-04-11 07:40:00,
2013-04-11 03:45:00,44.8,43.7,29.85,ESE,119,0.0,2.0,96,0.00,,---,0.06,0.00,VWS V14.01,2013-04-11 07:45:00,
2013-04-11 03:50:00,44.9,43.8,29.85,ESE,119,0.0,0.0,96,0.00,,---,0.06,0.00,VWS V14.01,2013-04-11 07:50:00,
2013-04-11 03:55:00,44.8,43.7,29.84,ESE,119,0.0,0.0,96,0.00,,---,0.06,0.00,VWS V14.01,2013-04-11 07:55:00,
2013-04-11 04:00:00,44.8,43.7,29.84,ESE,119,0.0,0.0,96,0.00,,---,0.06,0.00,VWS V14.01,2013-04-11 08:00:00,
2013-04-11 04:05:00,44.9,43.8,29.84,ESE,119,0.0,0.0,96,0.00,,---,0.06,0.00,VWS V14.01,2013-04-11 08:05:00,
2013-04-11 04:10:00,44.9,43.8,29.83,ESE,117,2.0,2.0,96,0.00,,---,0.06,0.00,VWS V14.01,2013-04-11 08:10:00,
2013-04-11 04:15:00,44.9,43.8,29.83,East,80,1.0,2.0,96,0.00,,---,0.06,0.00,VWS V14.01,2013-04-11 08:15:00,
2013-04-11 04:20:00,45.0,43.9,29.83,NNE,27,3.0,3.0,96,0.00,,---,0.06,0.00,VWS V14.01,2013-04-11 08:20:00,
2013-04-11 04:25:00,45.1,44.0,29.83,NNE,21,3.0,4.0,96,0.00,,---,0.06,0.00,VWS V14.01,2013-04-11 08:25:00,
2013-04-11 04:30:00,45.1,44.0,29.83,NNE,22,1.0,4.0,96,0.00,,---,0.06,0.00,VWS V14.01,2013-04-11 08:30:00,
2013-04-11 04:35:00,45.0,43.9,29.84,NE,36,1.0,2.0,96,0.00,,---,0.06,0.00,VWS V14.01,2013-04-11 08:35:00,
2013-04-11 04:40:00,45.0,43.9,29.83,NE,36,1.0,2.0,96,0.00,,---,0.06,0.00,VWS V14.01,2013-04-11 08:40:00,
2013-04-11 04:45:00,44.9,43.8,29.85,ESE,119,0.0,2.0,96,0.00,,,0.06,0.00,VWS V14.01,2013-04-11 08:45:00,
2013-04-11 04:46:00,45.0,43.9,29.83,NNE,21,1.0,3.0,96,0.00,,---,0.06,0.00,VWS V14.01,2013-04-11 08:46:00,
2013-04-11 04:51:00,45.2,44.1,29.83,North,355,2.0,4.0,96,0.00,,---,0.06,0.00,VWS V14.01,2013-04-11 08:51:00,
2013-04-11 04:55:00,45.4,44.3,29.83,NNW,342,2.0,4.0,96,0.00,,---,0.06,0.00,VWS V14.01,2013-04-11 08:55:00,
2013-04-11 05:00:00,44.8,43.7,29.84,ESE,119,0.0,0.0,96,0.00,,,0.06,0.00,VWS V14.01,2013-04-11 09:00:00,
2013-04-11 05:01:00,45.6,44.5,29.83,NNW,340,3.0,4.0,96,0.00,,---,0.06,0.00,VWS V14.01,2013-04-11 09:01:00,
2013-04-11 05:05:00,45.7,44.6,29.83,NW,317,4.0,6.0,96,0.00,,---,0.06,0.00,VWS V14.01,2013-04-11 09:05:00,
2013-04-11 05:11:00,45.9,45.1,29.84,NW,324,4.0,6.0,97,0.00,,---,0.06,0.00,VWS V14.01,2013-04-11 09:11:00,
2013-04-11 05:15:00,45.0,43.9,29.83,East,80,0.0,2.0,96,0.00,,,0.06,0.00,VWS V14.01,2013-04-11 09:15:00,
2013-04-11 05:16:00,46.1,45.3,29.84,NNW,343,5.0,9.0,97,0.00,,---,0.06,0.00,VWS V14.01,2013-04-11 09:16:00,
2013-04-11 05:21:00,46.2,45.4,29.85,WNW,300,4.0,8.0,97,0.00,,---,0.06,0.00,VWS V14.01,2013-04-11 09:21:00,
2013-04-11 05:26:00,46.3,45.5,29.85,NNW,331,4.0,8.0,97,0.00,,---,0.06,0.00,VWS V14.01,2013-04-11 09:26:00,
2013-04-11 05:30:00,45.1,44.0,29.83,NNE,24,1.0,4.0,96,0.00,,,0.06,0.00,VWS V14.01,2013-04-11 09:30:00,
2013-04-11 05:31:00,46.4,45.6,29.85,NW,315,5.0,8.0,97,0.00,,---,0.06,0.00,VWS V14.01,2013-04-11 09:31:00,
2013-04-11 05:36:00,46.5,45.7,29.85,WNW,299,5.0,9.0,97,0.00,,---,0.06,0.00,VWS V14.01,2013-04-11 09:36:00,
2013-04-11 05:41:00,46.5,45.7,29.84,NW,319,4.0,9.0,97,0.00,,---,0.06,0.00,VWS V14.01,2013-04-11 09:41:00,
2013-04-11 05:45:00,45.0,43.9,29.83,NNE,21,1.0,3.0,96,0.00,,,0.06,0.00,VWS V14.01,2013-04-11 09:45:00,
2013-04-11 05:46:00,46.6,45.8,29.85,NW,315,2.0,4.0,97,0.00,,---,0.06,0.00,VWS V14.01,2013-04-11 09:46:00,
2013-04-11 05:51:00,46.6,45.8,29.86,NW,313,4.0,7.0,97,0.00,,---,0.06,0.00,VWS V14.01,2013-04-11 09:51:00,
2013-04-11 05:56:00,46.7,45.9,29.86,NNW,335,6.0,7.0,97,0.00,,---,0.06,0.00,VWS V14.01,2013-04-11 09:56:00,
2013-04-11 06:00:00,45.6,44.5,29.83,NNW,342,4.0,4.0,96,0.00,,,0.06,0.00,VWS V14.01,2013-04-11 10:00:00,
2013-04-11 06:01:00,46.7,45.9,29.86,NW,319,4.0,5.0,97,0.00,,---,0.06,0.00,VWS V14.01,2013-04-11 10:01:00,
2013-04-11 06:06:00,46.8,46.0,29.87,NW,324,9.0,9.0,97,0.00,,---,0.06,0.00,VWS V14.01,2013-04-11 10:06:00,
2013-04-11 06:11:00,46.8,46.0,29.87,North,349,4.0,10.0,97,0.00,,---,0.06,0.00,VWS V14.01,2013-04-11 10:11:00,
2013-04-11 06:15:00,46.1,45.3,29.84,NW,317,5.0,9.0,97,0.00,,,0.06,0.00,VWS V14.01,2013-04-11 10:15:00,
2013-04-11 06:16:00,46.8,46.0,29.88,NNW,327,7.0,7.0,97,0.00,,---,0.06,0.00,VWS V14.01,2013-04-11 10:16:00,
2013-04-11 06:21:00,46.8,46.0,29.88,North,5,6.0,9.0,97,0.00,,---,0.06,0.00,VWS V14.01,2013-04-11 10:21:00,
2013-04-11 06:26:00,46.9,45.8,29.88,NNW,344,4.0,9.0,96,0.00,,---,0.06,5.00,VWS V14.01,2013-04-11 10:26:00,
2013-04-11 06:30:00,46.4,45.6,29.85,NW,315,5.0,8.0,97,0.00,,,0.06,0.00,VWS V14.01,2013-04-11 10:30:00,
2013-04-11 06:31:00,46.9,45.8,29.89,North,360,6.0,8.0,96,0.00,,---,0.06,5.00,VWS V14.01,2013-04-11 10:31:00,
2013-04-11 06:36:00,47.0,46.2,29.89,NW,324,7.0,8.0,97,0.00,,---,0.06,7.00,VWS V14.01,2013-04-11 10:36:00,
2013-04-11 06:41:00,47.0,46.2,29.90,NW,315,7.0,8.0,97,0.00,,---,0.06,11.00,VWS V14.01,2013-04-11 10:41:00,
2013-04-11 06:45:00,46.6,45.8,29.85,NW,315,4.0,9.0,97,0.00,,,0.06,0.00,VWS V14.01,2013-04-11 10:45:00,
2013-04-11 06:46:00,47.1,46.3,29.91,NW,313,4.0,6.0,97,0.00,,---,0.06,19.00,VWS V14.01,2013-04-11 10:46:00,
2013-04-11 06:52:00,47.2,46.4,29.91,NW,313,1.0,9.0,97,0.00,,---,0.06,16.00,VWS V14.01,2013-04-11 10:52:00,
2013-04-11 06:57:00,47.3,46.5,29.92,NW,326,4.0,15.0,97,0.00,,---,0.06,19.00,VWS V14.01,2013-04-11 10:57:00,
2013-04-11 07:00:00,46.7,45.9,29.86,NW,311,4.0,7.0,97,0.00,,,0.06,0.00,VWS V14.01,2013-04-11 11:00:00,
2013-04-11 07:02:00,47.3,46.5,29.92,NNW,338,3.0,6.0,97,0.00,,---,0.06,14.00,VWS V14.01,2013-04-11 11:02:00,
2013-04-11 07:07:00,47.3,46.2,29.92,North,5,6.0,12.0,96,0.00,,---,0.06,16.00,VWS V14.01,2013-04-11 11:07:00,
2013-04-11 07:12:00,47.3,46.2,29.92,NNW,333,11.0,15.0,96,0.00,,---,0.06,23.00,VWS V14.01,2013-04-11 11:12:00,
2013-04-11 07:15:00,46.8,46.0,29.88,NNW,336,4.0,10.0,97,0.00,,,0.06,0.00,VWS V14.01,2013-04-11 11:15:00,
2013-04-11 07:17:00,47.3,46.2,29.93,NNW,340,2.0,8.0,96,0.00,,---,0.06,39.00,VWS V14.01,2013-04-11 11:17:00,
2013-04-11 07:22:00,47.3,46.2,29.93,NNW,341,1.0,11.0,96,0.00,,---,0.06,39.00,VWS V14.01,2013-04-11 11:22:00,
2013-04-11 07:27:00,47.2,46.1,29.94,North,355,8.0,11.0,96,0.00,,---,0.06,56.00,VWS V14.01,2013-04-11 11:27:00,
2013-04-11 07:30:00,46.9,45.8,29.89,NW,313,6.0,9.0,96,0.00,,,0.06,5.00,VWS V14.01,2013-04-11 11:30:00,
2013-04-11 07:32:00,47.0,45.9,29.94,North,355,5.0,7.0,96,0.00,,---,0.06,46.00,VWS V14.01,2013-04-11 11:32:00,
2013-04-11 07:37:00,47.0,45.9,29.94,NNW,328,7.0,9.0,96,0.00,,---,0.06,47.00,VWS V14.01,2013-04-11 11:37:00,
2013-04-11 07:42:00,46.9,45.8,29.94,North,355,10.0,12.0,96,0.00,,---,0.06,67.00,VWS V14.01,2013-04-11 11:42:00,
2013-04-11 07:45:00,47.0,46.2,29.90,NNW,331,2.0,8.0,97,0.00,,,0.06,18.00,VWS V14.01,2013-04-11 11:45:00,
2013-04-11 07:47:00,46.8,45.7,29.94,NNE,26,8.0,9.0,96,0.00,,---,0.06,77.00,VWS V14.01,2013-04-11 11:47:00,
2013-04-11 07:52:00,46.8,45.7,29.94,North,360,4.0,10.0,96,0.00,,---,0.06,102.00,VWS V14.01,2013-04-11 11:52:00,
2013-04-11 07:57:00,46.7,45.3,29.94,North,5,4.0,10.0,95,0.00,,---,0.06,104.00,VWS V14.01,2013-04-11 11:57:00,
2013-04-11 08:00:00,47.3,46.5,29.92,NNW,331,3.0,15.0,97,0.00,,,0.06,18.00,VWS V14.01,2013-04-11 12:00:00,
2013-04-11 08:02:00,46.6,45.2,29.94,NW,324,9.0,11.0,95,0.00,,---,0.06,86.00,VWS V14.01,2013-04-11 12:02:00,
2013-04-11 08:07:00,46.6,45.2,29.95,NNW,331,10.0,14.0,95,0.00,,---,0.06,98.00,VWS V14.01,2013-04-11 12:07:00,
2013-04-11 08:12:00,46.6,45.2,29.95,NNW,331,9.0,14.0,95,0.00,,---,0.06,102.00,VWS V14.01,2013-04-11 12:12:00,
2013-04-11 08:15:00,47.3,46.2,29.93,NW,319,6.0,15.0,96,0.00,,,0.06,33.00,VWS V14.01,2013-04-11 12:15:00,
2013-04-11 08:17:00,46.6,45.0,29.95,NNW,339,10.0,12.0,94,0.00,,---,0.06,95.00,VWS V14.01,2013-04-11 12:17:00,
2013-04-11 08:22:00,46.7,45.1,29.95,NW,322,8.0,12.0,94,0.00,,---,0.06,83.00,VWS V14.01,2013-04-11 12:22:00,
2013-04-11 08:27:00,46.7,45.1,29.95,NNE,13,5.0,12.0,94,0.00,,---,0.06,81.00,VWS V14.01,2013-04-11 12:27:00,
2013-04-11 08:30:00,47.1,46.0,29.94,WNW,302,4.0,13.0,96,0.00,,,0.06,54.00,VWS V14.01,2013-04-11 12:30:00,
2013-04-11 08:32:00,46.7,45.1,29.95,NNW,345,6.0,9.0,94,0.00,,---,0.06,93.00,VWS V14.01,2013-04-11 12:32:00,
2013-04-11 08:37:00,46.7,45.1,29.95,NW,321,7.0,10.0,94,0.00,,---,0.06,111.00,VWS V14.01,2013-04-11 12:37:00,
2013-04-11 08:42:00,46.8,45.2,29.95,North,5,5.0,11.0,94,0.00,,---,0.06,97.00,VWS V14.01,2013-04-11 12:42:00,
2013-04-11 08:45:00,46.8,45.7,29.94,NNW,344,8.0,12.0,96,0.00,,,0.06,70.00,VWS V14.01,2013-04-11 12:45:00,
2013-04-11 08:47:00,46.9,45.3,29.95,NNE,17,2.0,7.0,94,0.00,,---,0.06,114.00,VWS V14.01,2013-04-11 12:47:00,
2013-04-11 08:52:00,46.8,44.9,29.95,NNW,347,4.0,15.0,93,0.00,,---,0.06,113.00,VWS V14.01,2013-04-11 12:52:00,
2013-04-11 08:57:00,46.8,44.9,29.95,NNW,347,4.0,15.0,93,0.00,,---,0.06,127.00,VWS V14.01,2013-04-11 12:57:00,
2013-04-11 09:00:00,46.7,45.3,29.94,North,355,7.0,16.0,95,0.00,,,0.06,81.00,VWS V14.01,2013-04-11 13:00:00,
2013-04-11 09:02:00,46.9,45.3,29.96,NNW,342,3.0,3.0,94,0.00,,---,0.06,144.00,VWS V14.01,2013-04-11 13:02:00,
2013-04-11 09:07:00,47.0,45.1,29.96,North,355,8.0,11.0,93,0.00,,---,0.06,130.00,VWS V14.01,2013-04-11 13:07:00,
2013-04-11 09:12:00,47.1,45.2,29.96,NNW,347,7.0,11.0,93,0.00,,---,0.06,142.00,VWS V14.01,2013-04-11 13:12:00,
2013-04-11 09:15:00,46.5,44.9,29.95,NW,322,9.0,14.0,94,0.00,,,0.06,86.00,VWS V14.01,2013-04-11 13:15:00,
2013-04-11 09:17:00,47.2,45.3,29.95,North,5,6.0,9.0,93,0.00,,---,0.06,197.00,VWS V14.01,2013-04-11 13:17:00,
2013-04-11 09:22:00,47.2,45.3,29.95,North,10,8.0,16.0,93,0.00,,---,0.06,199.00,VWS V14.01,2013-04-11 13:22:00,
2013-04-11 09:27:00,47.4,45.5,29.96,NNE,24,6.0,16.0,93,0.00,,---,0.06,174.00,VWS V14.01,2013-04-11 13:27:00,
2013-04-11 09:30:00,46.7,45.1,29.95,NNE,15,5.0,12.0,94,0.00,,,0.06,88.00,VWS V14.01,2013-04-11 13:30:00,
2013-04-11 09:32:00,47.7,45.5,29.97,NNE,32,4.0,9.0,92,0.00,,---,0.06,185.00,VWS V14.01,2013-04-11 13:32:00,
2013-04-11 09:37:00,47.9,45.7,29.98,NNW,338,5.0,9.0,92,0.00,,---,0.06,151.00,VWS V14.01,2013-04-11 13:37:00,
2013-04-11 09:42:00,48.0,45.5,29.99,North,5,6.0,13.0,91,0.00,,---,0.06,158.00,VWS V14.01,2013-04-11 13:42:00,
2013-04-11 09:45:00,46.9,45.3,29.95,NNW,334,5.0,11.0,94,0.00,,,0.06,111.00,VWS V14.01,2013-04-11 13:45:00,
2013-04-11 09:47:00,48.1,45.3,29.99,North,355,4.0,11.0,90,0.00,,---,0.06,128.00,VWS V14.01,2013-04-11 13:47:00,
2013-04-11 09:52:00,48.1,45.3,29.99,NNW,340,6.0,11.0,90,0.00,,---,0.06,149.00,VWS V14.01,2013-04-11 13:52:00,
2013-04-11 09:57:00,48.3,45.5,30.00,NNE,20,5.0,11.0,90,0.00,,---,0.06,172.00,VWS V14.01,2013-04-11 13:57:00,
2013-04-11 10:00:00,46.9,45.3,29.95,NNW,342,3.0,15.0,94,0.00,,,0.06,144.00,VWS V14.01,2013-04-11 14:00:00,
2013-04-11 10:02:00,48.3,45.5,30.00,NNE,15,4.0,11.0,90,0.00,,---,0.06,88.00,VWS V14.01,2013-04-11 14:02:00,
2013-04-11 10:07:00,48.3,45.5,29.99,North,355,5.0,11.0,90,0.00,,---,0.06,93.00,VWS V14.01,2013-04-11 14:07:00,
2013-04-11 10:12:00,48.2,45.4,29.99,NNE,17,8.0,11.0,90,0.00,,---,0.06,109.00,VWS V14.01,2013-04-11 14:12:00,
2013-04-11 10:15:00,47.1,45.2,29.96,NNW,342,9.0,12.0,93,0.00,,,0.06,199.00,VWS V14.01,2013-04-11 14:15:00,
2013-04-11 10:17:00,48.0,45.2,29.99,North,5,3.0,9.0,90,0.00,,---,0.06,98.00,VWS V14.01,2013-04-11 14:17:00,
2013-04-11 10:22:00,47.9,45.1,29.99,NNW,346,6.0,11.0,90,0.00,,---,0.06,91.00,VWS V14.01,2013-04-11 14:22:00,
2013-04-11 10:27:00,47.7,44.9,30.00,NNE,24,11.0,11.0,90,0.00,,---,0.06,69.00,VWS V14.01,2013-04-11 14:27:00,
2013-04-11 10:30:00,47.6,45.4,29.97,NNW,345,6.0,16.0,92,0.00,,,0.06,183.00,VWS V14.01,2013-04-11 14:30:00,
2013-04-11 10:33:00,47.5,44.7,29.99,NNE,24,6.0,13.0,90,0.00,,---,0.06,116.00,VWS V14.01,2013-04-11 14:33:00,
2013-04-11 10:38:00,47.3,44.8,30.00,NNE,21,6.0,14.0,91,0.00,,---,0.06,113.00,VWS V14.01,2013-04-11 14:38:00,
2013-04-11 10:43:00,47.0,44.2,30.00,NE,38,6.0,16.0,90,0.00,,---,0.06,102.00,VWS V14.01,2013-04-11 14:43:00,
2013-04-11 10:45:00,48.1,45.6,29.99,NNE,20,11.0,13.0,91,0.00,,,0.06,149.00,VWS V14.01,2013-04-11 14:45:00,
2013-04-11 10:48:00,46.8,44.0,30.00,North,360,10.0,16.0,90,0.00,,---,0.06,123.00,VWS V14.01,2013-04-11 14:48:00,
2013-04-11 10:53:00,46.5,43.7,30.00,NE,45,6.0,16.0,90,0.00,,---,0.06,141.00,VWS V14.01,2013-04-11 14:53:00,
2013-04-11 10:58:00,46.4,43.9,30.00,NE,39,6.0,16.0,91,0.00,,---,0.06,221.00,VWS V14.01,2013-04-11 14:58:00,
2013-04-11 11:00:00,48.3,45.5,30.00,North,350,11.0,11.0,90,0.00,,,0.06,128.00,VWS V14.01,2013-04-11 15:00:00,
2013-04-11 11:03:00,46.4,43.6,29.99,NE,36,11.0,16.0,90,0.00,,---,0.06,172.00,VWS V14.01,2013-04-11 15:03:00,
2013-04-11 11:08:00,46.3,43.5,30.00,North,5,5.0,16.0,90,0.00,,---,0.06,248.00,VWS V14.01,2013-04-11 15:08:00,
2013-04-11 11:13:00,46.7,43.9,30.01,North,5,3.0,16.0,90,0.00,,---,0.06,434.00,VWS V14.01,2013-04-11 15:13:00,
2013-04-11 11:15:00,48.1,45.3,29.99,NNE,26,9.0,11.0,90,0.00,,,0.06,100.00,VWS V14.01,2013-04-11 15:15:00,
2013-04-11 11:18:00,47.6,44.5,30.00,North,5,11.0,13.0,89,0.00,,---,0.06,446.00,VWS V14.01,2013-04-11 15:18:00,
2013-04-11 11:23:00,47.8,44.1,30.01,NE,40,5.0,14.0,87,0.00,,---,0.06,432.00,VWS V14.01,2013-04-11 15:23:00,
2013-04-11 11:28:00,48.0,44.0,30.01,NNE,31,7.0,18.0,86,0.00,,---,0.06,318.00,VWS V14.01,2013-04-11 15:28:00,
2013-04-11 11:30:00,47.6,44.8,30.00,NNW,340,5.0,11.0,90,0.00,,,0.06,81.00,VWS V14.01,2013-04-11 15:30:00,
2013-04-11 11:33:00,48.0,44.0,30.01,NE,40,6.0,12.0,86,0.00,,---,0.06,367.00,VWS V14.01,2013-04-11 15:33:00,
2013-04-11 11:38:00,48.1,43.8,30.01,NE,53,14.0,16.0,85,0.00,,---,0.06,272.00,VWS V14.01,2013-04-11 15:38:00,
2013-04-11 11:43:00,47.9,43.3,30.01,NNE,28,11.0,16.0,84,0.00,,---,0.06,265.00,VWS V14.01,2013-04-11 15:43:00,
2013-04-11 11:45:00,46.9,44.1,30.00,WNW,296,6.0,16.0,90,0.00,,,0.06,105.00,VWS V14.01,2013-04-11 15:45:00,
2013-04-11 11:48:00,47.6,43.3,30.02,NE,41,12.0,12.0,85,0.00,,---,0.06,179.00,VWS V14.01,2013-04-11 15:48:00,
2013-04-11 11:53:00,47.4,42.8,30.01,NNE,24,7.0,18.0,84,0.00,,---,0.06,190.00,VWS V14.01,2013-04-11 15:53:00,
2013-04-11 11:58:00,47.2,42.9,30.01,NE,52,7.0,20.0,85,0.00,,---,0.06,197.00,VWS V14.01,2013-04-11 15:58:00,
2013-04-11 12:00:00,46.4,43.9,29.99,NNE,24,11.0,18.0,91,0.00,,,0.06,192.00,VWS V14.01,2013-04-11 16:00:00,
2013-04-11 12:03:00,46.9,42.3,30.02,NE,53,6.0,20.0,84,0.00,,---,0.06,146.00,VWS V14.01,2013-04-11 16:03:00,
2013-04-11 12:08:00,46.8,42.2,30.02,ENE,60,18.0,20.0,84,0.00,,---,0.06,192.00,VWS V14.01,2013-04-11 16:08:00,
2013-04-11 12:13:00,46.8,42.2,30.02,North,360,10.0,20.0,84,0.00,,---,0.06,229.00,VWS V14.01,2013-04-11 16:13:00,
2013-04-11 12:15:00,47.2,44.4,30.01,North,5,4.0,16.0,90,0.00,,,0.06,563.00,VWS V14.01,2013-04-11 16:15:00,
2013-04-11 12:18:00,46.8,42.2,30.01,ENE,59,8.0,16.0,84,0.00,,---,0.06,236.00,VWS V14.01,2013-04-11 16:18:00,
2013-04-11 12:23:00,46.8,41.9,30.02,NE,38,8.0,18.0,83,0.00,,---,0.06,283.00,VWS V14.01,2013-04-11 16:23:00,
2013-04-11 12:28:00,46.9,41.7,30.02,NE,36,9.0,18.0,82,0.00,,---,0.06,301.00,VWS V14.01,2013-04-11 16:28:00,
2013-04-11 12:30:00,47.9,43.6,30.01,ENE,61,6.0,18.0,85,0.00,,,0.06,397.00,VWS V14.01,2013-04-11 16:30:00,
2013-04-11 12:33:00,46.9,41.7,30.02,NE,54,18.0,21.0,82,0.00,,---,0.06,269.00,VWS V14.01,2013-04-11 16:33:00,
2013-04-11 12:38:00,46.7,41.5,30.02,NE,53,11.0,22.0,82,0.00,,---,0.06,265.00,VWS V14.01,2013-04-11 16:38:00,
2013-04-11 12:43:00,46.8,41.6,30.02,ENE,69,14.0,22.0,82,0.00,,---,0.06,243.00,VWS V14.01,2013-04-11 16:43:00,
2013-04-11 12:45:00,47.6,43.0,30.01,NE,40,8.0,19.0,84,0.00,,,0.06,211.00,VWS V14.01,2013-04-11 16:45:00,
2013-04-11 12:48:00,46.8,41.9,30.02,NNE,28,6.0,19.0,83,0.00,,---,0.06,223.00,VWS V14.01,2013-04-11 16:48:00,
2013-04-11 12:53:00,46.8,41.9,30.02,NNE,32,10.0,19.0,83,0.00,,---,0.06,241.00,VWS V14.01,2013-04-11 16:53:00,
2013-04-11 12:58:00,46.8,42.2,30.02,North,360,7.0,19.0,84,0.00,,---,0.06,246.00,VWS V14.01,2013-04-11 16:58:00,
2013-04-11 13:00:00,47.0,42.7,30.02,ENE,61,13.0,20.0,85,0.00,,,0.06,174.00,VWS V14.01,2013-04-11 17:00:00,
2013-04-11 13:04:00,46.8,42.2,30.02,NNE,23,9.0,17.0,84,0.00,,---,0.06,276.00,VWS V14.01,2013-04-11 17:04:00,
2013-04-11 13:09:00,46.8,41.6,30.02,NE,54,16.0,19.0,82,0.00,,---,0.06,327.00,VWS V14.01,2013-04-11 17:09:00,
2013-04-11 13:14:00,47.0,42.1,30.02,NE,40,11.0,19.0,83,0.00,,---,0.06,371.00,VWS V14.01,2013-04-11 17:14:00,
2013-04-11 13:15:00,46.7,41.8,30.02,NNE,32,7.0,21.0,83,0.00,,,0.06,204.00,VWS V14.01,2013-04-11 17:15:00,
2013-04-11 13:19:00,47.4,42.2,30.02,NNE,19,9.0,17.0,82,0.00,,---,0.06,336.00,VWS V14.01,2013-04-11 17:19:00,
2013-04-11 13:24:00,47.2,42.0,30.03,NNE,17,13.0,20.0,82,0.00,,---,0.06,244.00,VWS V14.01,2013-04-11 17:24:00,
2013-04-11 13:29:00,47.1,41.6,30.03,NE,43,12.0,20.0,81,0.00,,---,0.06,404.00,VWS V14.01,2013-04-11 17:29:00,
2013-04-11 13:34:00,47.2,41.7,30.03,NE,42,13.0,16.0,81,0.00,,---,0.06,315.00,VWS V14.01,2013-04-11 17:34:00,
2013-04-11 13:39:00,47.3,41.5,30.03,North,355,5.0,17.0,80,0.00,,---,0.06,371.00,VWS V14.01,2013-04-11 17:39:00,
2013-04-11 13:44:00,47.3,41.5,30.03,NE,39,17.0,17.0,80,0.00,,---,0.06,294.00,VWS V14.01,2013-04-11 17:44:00,
2013-04-11 13:45:00,46.8,41.9,30.02,North,11,9.0,22.0,83,0.00,,,0.06,234.00,VWS V14.01,2013-04-11 17:45:00,
2013-04-11 13:49:00,47.2,41.0,30.03,NE,44,14.0,18.0,79,0.00,,---,0.06,336.00,VWS V14.01,2013-04-11 17:49:00,
2013-04-11 13:54:00,47.4,40.6,30.04,NE,47,8.0,18.0,77,0.00,,---,0.06,536.00,VWS V14.01,2013-04-11 17:54:00,
2013-04-11 13:59:00,48.1,40.9,30.04,NNE,19,12.0,18.0,76,0.00,,---,0.06,403.00,VWS V14.01,2013-04-11 17:59:00,
2013-04-11 14:00:00,46.8,41.9,30.02,NNE,33,8.0,19.0,83,0.00,,,0.06,237.00,VWS V14.01,2013-04-11 18:00:00,
2013-04-11 14:04:00,48.0,40.5,30.04,NNE,32,4.0,16.0,75,0.00,,---,0.06,364.00,VWS V14.01,2013-04-11 18:04:00,
2013-04-11 14:09:00,48.2,41.3,30.04,NNE,23,9.0,16.0,77,0.00,,---,0.06,394.00,VWS V14.01,2013-04-11 18:09:00,
2013-04-11 14:14:00,48.3,40.8,30.04,ENE,65,4.0,16.0,75,0.00,,---,0.06,362.00,VWS V14.01,2013-04-11 18:14:00,
2013-04-11 14:15:00,47.2,42.3,30.02,NNE,17,7.0,19.0,83,0.00,,,0.06,369.00,VWS V14.01,2013-04-11 18:15:00,
2013-04-11 14:19:00,48.3,41.1,30.04,ENE,57,6.0,13.0,76,0.00,,---,0.06,431.00,VWS V14.01,2013-04-11 18:19:00,
2013-04-11 14:24:00,48.6,40.3,30.04,ENE,63,12.0,16.0,73,0.00,,---,0.06,492.00,VWS V14.01,2013-04-11 18:24:00,
2013-04-11 14:29:00,48.6,39.6,30.03,NE,34,17.0,18.0,71,0.02,,---,0.08,454.00,VWS V14.01,2013-04-11 18:29:00,
2013-04-11 14:30:00,47.1,41.6,30.03,North,9,5.0,20.0,81,0.00,,,0.06,410.00,VWS V14.01,2013-04-11 18:30:00,
2013-04-11 14:34:00,49.0,40.0,30.03,NE,55,10.0,13.0,71,0.02,,---,0.08,564.00,VWS V14.01,2013-04-11 18:34:00,
2013-04-11 14:39:00,49.4,40.8,30.04,ENE,59,13.0,15.0,72,0.02,,---,0.08,526.00,VWS V14.01,2013-04-11 18:39:00,
2013-04-11 14:44:00,49.4,40.8,30.04,NE,56,11.0,15.0,72,0.02,,---,0.08,635.00,VWS V14.01,2013-04-11 18:44:00,
2013-04-11 14:45:00,47.2,41.0,30.03,NNE,31,8.0,17.0,79,0.00,,,0.06,315.00,VWS V14.01,2013-04-11 18:45:00,
2013-04-11 14:49:00,49.4,40.4,30.03,NE,34,13.0,14.0,71,0.02,,---,0.08,334.00,VWS V14.01,2013-04-11 18:49:00,
2013-04-11 14:54:00,49.3,39.9,30.03,ENE,64,14.0,18.0,70,0.02,,---,0.08,812.00,VWS V14.01,2013-04-11 18:54:00,
2013-04-11 14:59:00,49.6,39.9,30.03,ENE,67,17.0,20.0,69,0.02,,---,0.08,745.00,VWS V14.01,2013-04-11 18:59:00,
2013-04-11 15:00:00,48.1,41.2,30.04,North,360,5.0,18.0,77,0.00,,,0.06,411.00,VWS V14.01,2013-04-11 19:00:00,
2013-04-11 15:04:00,49.6,39.5,30.03,NE,56,6.0,19.0,68,0.02,,---,0.08,701.00,VWS V14.01,2013-04-11 19:04:00,
2013-04-11 15:09:00,49.6,39.5,30.03,NNE,28,10.0,19.0,68,0.02,,---,0.08,617.00,VWS V14.01,2013-04-11 19:09:00,
2013-04-11 15:14:00,49.4,39.3,30.03,NE,54,16.0,19.0,68,0.02,,---,0.08,766.00,VWS V14.01,2013-04-11 19:14:00,
2013-04-11 15:15:00,48.3,41.1,30.04,NE,38,10.0,16.0,76,0.00,,,0.06,410.00,VWS V14.01,2013-04-11 19:15:00,
2013-04-11 15:19:00,49.4,39.3,30.04,NNE,19,14.0,18.0,68,0.02,,---,0.08,633.00,VWS V14.01,2013-04-11 19:19:00,
2013-04-11 15:24:00,49.4,40.0,30.04,NE,38,9.0,20.0,70,0.02,,---,0.08,742.00,VWS V14.01,2013-04-11 19:24:00,
2013-04-11 15:29:00,49.1,40.1,30.03,NE,49,15.0,20.0,71,0.02,,---,0.08,274.00,VWS V14.01,2013-04-11 19:29:00,
2013-04-11 15:30:00,48.6,39.6,30.03,NE,35,6.0,18.0,71,0.02,,,0.08,454.00,VWS V14.01,2013-04-11 19:30:00,
2013-04-11 15:34:00,48.8,39.8,30.04,NE,41,8.0,15.0,71,0.00,,---,0.08,301.00,VWS V14.01,2013-04-11 19:34:00,
2013-04-11 15:43:00,48.5,39.5,30.03,NE,45,6.0,15.0,71,0.00,,---,0.08,330.00,VWS V14.01,2013-04-11 19:43:00,
2013-04-11 15:45:00,49.4,40.4,30.04,NE,52,13.0,15.0,71,0.02,,,0.08,374.00,VWS V14.01,2013-04-11 19:45:00,
2013-04-11 15:48:00,48.5,39.5,30.02,ENE,74,10.0,20.0,71,0.00,,---,0.08,534.00,VWS V14.01,2013-04-11 19:48:00,
2013-04-11 15:53:00,48.7,40.1,30.03,ENE,65,11.0,20.0,72,0.00,,---,0.08,566.00,VWS V14.01,2013-04-11 19:53:00,
2013-04-11 15:58:00,48.4,39.4,30.03,NE,40,10.0,20.0,71,0.00,,---,0.08,313.00,VWS V14.01,2013-04-11 19:58:00,
2013-04-11 16:00:00,49.7,40.0,30.03,NE,44,14.0,20.0,69,0.02,,,0.08,758.00,VWS V14.01,2013-04-11 20:00:00,
2013-04-11 16:03:00,48.0,39.1,30.03,NE,38,12.0,17.0,71,0.00,,---,0.08,190.00,VWS V14.01,2013-04-11 20:03:00,
2013-04-11 16:08:00,47.8,39.6,30.03,NE,46,12.0,17.0,73,0.00,,---,0.08,193.00,VWS V14.01,2013-04-11 20:08:00,
2013-04-11 16:13:00,47.9,39.3,30.03,East,79,10.0,17.0,72,0.00,,---,0.08,258.00,VWS V14.01,2013-04-11 20:13:00,
2013-04-11 16:15:00,49.3,39.2,30.04,NE,52,10.0,19.0,68,0.02,,,0.08,719.00,VWS V14.01,2013-04-11 20:15:00,
2013-04-11 16:18:00,48.1,39.5,30.03,NE,56,14.0,14.0,72,0.00,,---,0.08,264.00,VWS V14.01,2013-04-11 20:18:00,
2013-04-11 16:23:00,48.1,39.2,30.03,NE,42,9.0,15.0,71,0.00,,---,0.08,264.00,VWS V14.01,2013-04-11 20:23:00,
2013-04-11 16:28:00,48.3,39.0,30.03,NE,49,13.0,15.0,70,0.00,,---,0.08,269.00,VWS V14.01,2013-04-11 20:28:00,
2013-04-11 16:30:00,49.1,39.8,30.03,NNE,33,11.0,20.0,70,0.02,,,0.08,292.00,VWS V14.01,2013-04-11 20:30:00,
2013-04-11 16:33:00,48.3,38.6,30.04,NE,46,8.0,13.0,69,0.00,,---,0.08,234.00,VWS V14.01,2013-04-11 20:33:00,
2013-04-11 16:38:00,48.2,39.2,30.04,NE,43,6.0,14.0,71,0.00,,---,0.08,179.00,VWS V14.01,2013-04-11 20:38:00,
2013-04-11 16:43:00,48.2,39.2,30.04,NE,38,6.0,14.0,71,0.00,,---,0.08,160.00,VWS V14.01,2013-04-11 20:43:00,
2013-04-11 16:45:00,48.5,39.9,30.03,NE,44,14.0,15.0,72,0.00,,,0.08,773.00,VWS V14.01,2013-04-11 20:45:00,
2013-04-11 16:48:00,48.2,39.6,30.04,NE,45,6.0,10.0,72,0.00,,---,0.08,137.00,VWS V14.01,2013-04-11 20:48:00,
2013-04-11 16:53:00,48.1,38.8,30.04,NE,43,6.0,13.0,70,0.00,,---,0.08,144.00,VWS V14.01,2013-04-11 20:53:00,
2013-04-11 16:58:00,48.0,38.7,30.05,NNE,30,6.0,14.0,70,0.00,,---,0.08,134.00,VWS V14.01,2013-04-11 20:58:00,
2013-04-11 17:00:00,48.2,39.2,30.02,NE,53,17.0,20.0,71,0.00,,,0.08,188.00,VWS V14.01,2013-04-11 21:00:00,
2013-04-11 17:03:00,48.0,38.7,30.05,NE,54,4.0,10.0,70,0.00,,---,0.08,127.00,VWS V14.01,2013-04-11 21:03:00,
2013-04-11 17:08:00,48.0,39.1,30.05,NNE,30,3.0,12.0,71,0.00,,---,0.08,165.00,VWS V14.01,2013-04-11 21:08:00,
2013-04-11 17:13:00,48.1,39.5,30.05,ENE,66,3.0,12.0,72,0.00,,---,0.08,149.00,VWS V14.01,2013-04-11 21:13:00,
2013-04-11 17:15:00,48.1,39.9,30.03,ENE,57,8.0,17.0,73,0.00,,,0.08,288.00,VWS V14.01,2013-04-11 21:15:00,
2013-04-11 17:18:00,48.0,39.8,30.05,ENE,67,8.0,11.0,73,0.00,,---,0.08,137.00,VWS V14.01,2013-04-11 21:18:00,
2013-04-11 17:23:00,48.0,39.8,30.05,NE,53,4.0,11.0,73,0.00,,---,0.08,100.00,VWS V14.01,2013-04-11 21:23:00,
2013-04-11 17:28:00,47.9,39.3,30.06,NE,53,10.0,11.0,72,0.00,,---,0.08,109.00,VWS V14.01,2013-04-11 21:28:00,
2013-04-11 17:30:00,48.2,38.9,30.04,NE,48,10.0,15.0,70,0.00,,,0.08,269.00,VWS V14.01,2013-04-11 21:30:00,
2013-04-11 17:33:00,47.8,38.9,30.05,ENE,59,8.0,10.0,71,0.00,,---,0.08,120.00,VWS V14.01,2013-04-11 21:33:00,
2013-04-11 17:38:00,47.9,38.6,30.05,NE,40,8.0,12.0,70,0.00,,---,0.08,113.00,VWS V14.01,2013-04-11 21:38:00,
2013-04-11 17:43:00,47.8,38.5,30.06,NE,42,9.0,12.0,70,0.00,,---,0.08,98.00,VWS V14.01,2013-04-11 21:43:00,
2013-04-11 17:45:00,48.2,39.2,30.04,NE,53,10.0,14.0,71,0.00,,,0.08,195.00,VWS V14.01,2013-04-11 21:45:00,
2013-04-11 17:48:00,47.8,37.8,30.06,NE,53,6.0,9.0,68,0.00,,---,0.08,77.00,VWS V14.01,2013-04-11 21:48:00,
2013-04-11 17:53:00,47.8,37.8,30.06,ENE,60,6.0,9.0,68,0.00,,---,0.08,83.00,VWS V14.01,2013-04-11 21:53:00,
2013-04-11 17:58:00,47.8,38.5,30.06,East,94,9.0,12.0,70,0.00,,---,0.08,70.00,VWS V14.01,2013-04-11 21:58:00,
2013-04-11 18:03:00,46.9,40.4,30.06,ESE,122,7.0,9.0,78,0.00,,---,0.08,62.00,VWS V14.01,2013-04-11 22:03:00,
2013-04-11 18:08:00,46.4,40.9,30.06,ESE,111,8.0,13.0,81,0.00,,---,0.08,58.00,VWS V14.01,2013-04-11 22:08:00,
2013-04-11 18:13:00,46.0,40.8,30.06,ESE,105,9.0,13.0,82,0.00,,---,0.08,51.00,VWS V14.01,2013-04-11 22:13:00,
2013-04-11 18:15:00,48.1,39.5,30.05,ENE,69,8.0,12.0,72,0.00,,,0.08,146.00,VWS V14.01,2013-04-11 22:15:00,
2013-04-11 18:19:00,45.9,41.0,30.06,East,100,8.0,12.0,83,0.00,,---,0.08,47.00,VWS V14.01,2013-04-11 22:19:00,
2013-04-11 18:24:00,45.8,40.9,30.06,East,88,8.0,12.0,83,0.00,,---,0.08,37.00,VWS V14.01,2013-04-11 22:24:00,
2013-04-11 18:29:00,45.7,40.5,30.06,East,91,9.0,12.0,82,0.00,,---,0.08,21.00,VWS V14.01,2013-04-11 22:29:00,
2013-04-11 18:30:00,47.8,38.9,30.05,NE,55,8.0,11.0,71,0.00,,,0.08,120.00,VWS V14.01,2013-04-11 22:30:00,
2013-04-11 18:34:00,45.7,40.5,30.06,ESE,109,6.0,11.0,82,0.00,,---,0.08,18.00,VWS V14.01,2013-04-11 22:34:00,
2013-04-11 18:39:00,45.7,40.5,30.07,East,88,7.0,13.0,82,0.00,,---,0.08,16.00,VWS V14.01,2013-04-11 22:39:00,
2013-04-11 18:44:00,45.7,40.2,30.07,East,90,12.0,14.0,81,0.00,,---,0.08,12.00,VWS V14.01,2013-04-11 22:44:00,
2013-04-11 18:45:00,47.8,38.5,30.06,NE,55,8.0,12.0,70,0.00,,,0.08,81.00,VWS V14.01,2013-04-11 22:45:00,
2013-04-11 18:49:00,45.6,40.4,30.07,East,85,10.0,13.0,82,0.00,,---,0.08,11.00,VWS V14.01,2013-04-11 22:49:00,
2013-04-11 18:54:00,45.5,40.7,30.06,East,89,7.0,13.0,83,0.00,,---,0.08,7.00,VWS V14.01,2013-04-11 22:54:00,
2013-04-11 18:59:00,45.4,40.5,30.06,East,88,11.0,15.0,83,0.00,,---,0.08,7.00,VWS V14.01,2013-04-11 22:59:00,
2013-04-11 19:00:00,47.4,40.2,30.06,East,100,9.0,12.0,76,0.00,,,0.08,67.00,VWS V14.01,2013-04-11 23:00:00,
2013-04-11 19:04:00,45.5,41.0,30.06,East,79,8.0,12.0,84,0.00,,---,0.08,7.00,VWS V14.01,2013-04-11 23:04:00,
2013-04-11 19:09:00,45.6,41.0,30.07,ENE,65,13.0,13.0,84,0.00,,---,0.08,0.00,VWS V14.01,2013-04-11 23:09:00,
2013-04-11 19:14:00,45.7,40.8,30.06,East,84,7.0,13.0,83,0.00,,---,0.08,0.00,VWS V14.01,2013-04-11 23:14:00,
2013-04-11 19:15:00,45.8,40.6,30.06,East,88,6.0,13.0,82,0.00,,,0.08,51.00,VWS V14.01,2013-04-11 23:15:00,
2013-04-11 19:19:00,45.9,41.0,30.07,ENE,73,7.0,12.0,83,0.00,,---,0.08,0.00,VWS V14.01,2013-04-11 23:19:00,
2013-04-11 19:24:00,46.0,41.1,30.07,ENE,78,6.0,12.0,83,0.00,,---,0.08,0.00,VWS V14.01,2013-04-11 23:24:00,
2013-04-11 19:29:00,46.0,41.1,30.07,East,91,6.0,12.0,83,0.00,,---,0.08,0.00,VWS V14.01,2013-04-11 23:29:00,
2013-04-11 19:30:00,45.7,40.5,30.07,East,94,8.0,12.0,82,0.00,,,0.08,19.00,VWS V14.01,2013-04-11 23:30:00,
2013-04-11 19:34:00,46.0,40.8,30.08,East,89,7.0,11.0,82,0.00,,---,0.08,0.00,VWS V14.01,2013-04-11 23:34:00,
2013-04-11 19:39:00,46.0,40.8,30.08,East,88,5.0,11.0,82,0.00,,---,0.08,0.00,VWS V14.01,2013-04-11 23:39:00,
2013-04-11 19:44:00,46.1,40.9,30.08,East,90,8.0,11.0,82,0.00,,---,0.08,0.00,VWS V14.01,2013-04-11 23:44:00,
2013-04-11 19:49:00,46.1,40.9,30.08,ENE,69,5.0,8.0,82,0.00,,---,0.08,0.00,VWS V14.01,2013-04-11 23:49:00,
2013-04-11 19:54:00,46.1,40.6,30.09,East,90,11.0,11.0,81,0.00,,---,0.08,0.00,VWS V14.01,2013-04-11 23:54:00,
2013-04-11 19:59:00,46.1,40.6,30.09,East,90,9.0,13.0,81,0.00,,---,0.08,0.00,VWS V14.01,2013-04-11 23:59:00,
2013-04-11 20:00:00,45.4,40.9,30.06,ENE,76,7.0,15.0,84,0.00,,,0.08,7.00,VWS V14.01,2013-04-12 00:00:00,
2013-04-11 20:04:00,46.0,40.5,30.09,East,99,8.0,11.0,81,0.00,,---,0.08,0.00,VWS V14.01,2013-04-12 00:04:00,
2013-04-11 20:09:00,46.0,40.2,30.09,ESE,103,9.0,12.0,80,0.00,,---,0.08,0.00,VWS V14.01,2013-04-12 00:09:00,
2013-04-11 20:14:00,45.9,40.1,30.09,ESE,102,11.0,13.0,80,0.00,,---,0.08,0.00,VWS V14.01,2013-04-12 00:14:00,
2013-04-11 20:15:00,45.8,40.9,30.07,East,84,10.0,13.0,83,0.00,,,0.08,0.00,VWS V14.01,2013-04-12 00:15:00,
2013-04-11 20:19:00,45.8,40.0,30.09,East,98,12.0,13.0,80,0.00,,---,0.08,0.00,VWS V14.01,2013-04-12 00:19:00,
2013-04-11 20:24:00,45.7,39.9,30.10,East,94,8.0,13.0,80,0.00,,---,0.08,0.00,VWS V14.01,2013-04-12 00:24:00,
2013-04-11 20:29:00,45.6,39.8,30.10,East,99,11.0,13.0,80,0.00,,---,0.08,0.00,VWS V14.01,2013-04-12 00:29:00,
2013-04-11 20:30:00,46.0,40.8,30.07,ENE,74,4.0,12.0,82,0.00,,,0.08,0.00,VWS V14.01,2013-04-12 00:30:00,
2013-04-11 20:34:00,45.6,39.8,30.10,East,90,11.0,12.0,80,0.00,,---,0.08,0.00,VWS V14.01,2013-04-12 00:34:00,
2013-04-11 20:39:00,45.5,39.4,30.10,East,89,8.0,13.0,79,0.00,,---,0.08,0.00,VWS V14.01,2013-04-12 00:39:00,
2013-04-11 20:44:00,45.5,38.7,30.10,East,94,12.0,15.0,77,0.00,,---,0.08,0.00,VWS V14.01,2013-04-12 00:44:00,
2013-04-11 20:45:00,46.1,40.9,30.08,East,93,7.0,11.0,82,0.00,,,0.08,0.00,VWS V14.01,2013-04-12 00:45:00,
2013-04-11 20:49:00,45.3,39.2,30.10,East,93,12.0,16.0,79,0.00,,---,0.08,0.00,VWS V14.01,2013-04-12 00:49:00,
2013-04-11 20:54:00,45.2,39.1,30.11,East,95,15.0,16.0,79,0.00,,---,0.08,0.00,VWS V14.01,2013-04-12 00:54:00,
2013-04-11 20:59:00,45.2,38.8,30.11,ESE,105,11.0,18.0,78,0.00,,---,0.08,0.00,VWS V14.01,2013-04-12 00:59:00,
2013-04-11 21:00:00,46.1,40.9,30.09,East,101,7.0,13.0,82,0.00,,,0.08,0.00,VWS V14.01,2013-04-12 01:00:00,
2013-04-11 21:04:00,45.2,38.8,30.11,East,95,9.0,14.0,78,0.00,,---,0.08,0.00,VWS V14.01,2013-04-12 01:04:00,
2013-04-11 21:09:00,45.2,38.4,30.12,East,91,8.0,14.0,77,0.00,,---,0.08,0.00,VWS V14.01,2013-04-12 01:09:00,
2013-04-11 21:14:00,45.2,38.1,30.12,East,99,9.0,14.0,76,0.00,,---,0.08,0.00,VWS V14.01,2013-04-12 01:14:00,
2013-04-11 21:15:00,45.8,40.0,30.10,East,94,13.0,13.0,80,0.00,,,0.08,0.00,VWS V14.01,2013-04-12 01:15:00,
2013-04-11 21:19:00,45.2,38.4,30.12,East,86,8.0,12.0,77,0.00,,---,0.08,0.00,VWS V14.01,2013-04-12 01:19:00,
2013-04-11 21:24:00,45.1,38.0,30.12,ESE,106,11.0,15.0,76,0.00,,---,0.08,0.00,VWS V14.01,2013-04-12 01:24:00,
2013-04-11 21:29:00,44.9,38.1,30.12,East,87,12.0,15.0,77,0.00,,---,0.08,0.00,VWS V14.01,2013-04-12 01:29:00,
2013-04-11 21:30:00,45.6,40.1,30.10,East,100,9.0,13.0,81,0.00,,,0.08,0.00,VWS V14.01,2013-04-12 01:30:00,
2013-04-11 21:34:00,44.9,37.8,30.12,ESE,102,11.0,14.0,76,0.00,,---,0.08,0.00,VWS V14.01,2013-04-12 01:34:00,
2013-04-11 21:39:00,44.8,37.7,30.11,East,90,15.0,15.0,76,0.00,,---,0.08,0.00,VWS V14.01,2013-04-12 01:39:00,
2013-04-11 21:44:00,44.7,37.6,30.12,East,96,12.0,15.0,76,0.00,,---,0.08,0.00,VWS V14.01,2013-04-12 01:44:00,
2013-04-11 21:45:00,45.4,39.0,30.10,ESE,103,12.0,15.0,78,0.00,,,0.08,0.00,VWS V14.01,2013-04-12 01:45:00,
2013-04-11 21:49:00,44.8,38.4,30.13,ENE,74,7.0,10.0,78,0.00,,---,0.08,0.00,VWS V14.01,2013-04-12 01:49:00,
2013-04-11 21:54:00,44.7,38.3,30.13,East,92,11.0,12.0,78,0.00,,---,0.08,0.00,VWS V14.01,2013-04-12 01:54:00,
2013-04-11 21:59:00,44.7,38.3,30.13,East,80,7.0,12.0,78,0.00,,---,0.08,0.00,VWS V14.01,2013-04-12 01:59:00,
2013-04-11 22:00:00,45.2,38.8,30.11,East,88,8.0,18.0,78,0.00,,,0.08,0.00,VWS V14.01,2013-04-12 02:00:00,
2013-04-11 22:04:00,44.7,38.3,30.13,ENE,78,7.0,11.0,78,0.00,,---,0.08,0.00,VWS V14.01,2013-04-12 02:04:00,
2013-04-11 22:09:00,44.7,37.6,30.12,East,80,10.0,11.0,76,0.00,,---,0.08,0.00,VWS V14.01,2013-04-12 02:09:00,
2013-04-11 22:14:00,44.7,37.6,30.12,East,86,6.0,13.0,76,0.00,,---,0.08,0.00,VWS V14.01,2013-04-12 02:14:00,
2013-04-11 22:15:00,45.2,38.4,30.12,East,97,12.0,14.0,77,0.00,,,0.08,0.00,VWS V14.01,2013-04-12 02:15:00,
2013-04-11 22:19:00,44.7,37.3,30.13,ENE,69,6.0,10.0,75,0.00,,---,0.08,0.00,VWS V14.01,2013-04-12 02:19:00,
2013-04-11 22:24:00,44.8,37.4,30.14,East,89,6.0,10.0,75,0.00,,---,0.08,0.00,VWS V14.01,2013-04-12 02:24:00,
2013-04-11 22:29:00,44.8,37.4,30.14,NNE,32,5.0,10.0,75,0.00,,---,0.08,0.00,VWS V14.01,2013-04-12 02:29:00,
2013-04-11 22:30:00,44.9,38.1,30.12,East,101,9.0,15.0,77,0.00,,,0.08,0.00,VWS V14.01,2013-04-12 02:30:00,
2013-04-11 22:34:00,44.8,36.3,30.14,ENE,59,6.0,8.0,72,0.00,,---,0.08,0.00,VWS V14.01,2013-04-12 02:34:00,
2013-04-11 22:39:00,44.9,36.4,30.14,ENE,70,5.0,8.0,72,0.00,,---,0.08,0.00,VWS V14.01,2013-04-12 02:39:00,
2013-04-11 22:44:00,44.9,36.4,30.14,East,82,6.0,10.0,72,0.00,,---,0.08,0.00,VWS V14.01,2013-04-12 02:44:00,
2013-04-11 22:45:00,44.7,37.6,30.12,East,92,7.0,15.0,76,0.00,,,0.08,0.00,VWS V14.01,2013-04-12 02:45:00,
2013-04-11 22:49:00,44.9,36.1,30.13,ENE,78,7.0,11.0,71,0.00,,---,0.08,0.00,VWS V14.01,2013-04-12 02:49:00,
2013-04-11 22:54:00,44.9,36.1,30.14,East,89,7.0,11.0,71,0.00,,---,0.08,0.00,VWS V14.01,2013-04-12 02:54:00,
2013-04-11 22:59:00,44.9,36.8,30.14,ENE,75,7.0,11.0,73,0.00,,---,0.08,0.00,VWS V14.01,2013-04-12 02:59:00,
2013-04-11 23:00:00,44.7,38.3,30.13,ENE,67,8.0,12.0,78,0.00,,,0.08,0.00,VWS V14.01,2013-04-12 03:00:00,
2013-04-11 23:04:00,44.8,36.3,30.14,ENE,67,6.0,11.0,72,0.00,,---,0.08,0.00,VWS V14.01,2013-04-12 03:04:00,
2013-04-11 23:09:00,44.8,36.3,30.14,ENE,70,5.0,11.0,72,0.00,,---,0.08,0.00,VWS V14.01,2013-04-12 03:09:00,
2013-04-11 23:14:00,44.7,35.9,30.14,ENE,78,8.0,11.0,71,0.00,,---,0.08,0.00,VWS V14.01,2013-04-12 03:14:00,
2013-04-11 23:15:00,44.7,37.6,30.12,East,87,10.0,13.0,76,0.00,,,0.08,0.00,VWS V14.01,2013-04-12 03:15:00,
2013-04-11 23:19:00,44.7,35.9,30.14,East,81,6.0,10.0,71,0.00,,---,0.08,0.00,VWS V14.01,2013-04-12 03:19:00,
2013-04-11 23:24:00,44.7,35.9,30.14,ENE,71,7.0,11.0,71,0.00,,---,0.08,0.00,VWS V14.01,2013-04-12 03:24:00,
2013-04-11 23:29:00,44.7,36.2,30.14,ENE,68,8.0,12.0,72,0.00,,---,0.08,0.00,VWS V14.01,2013-04-12 03:29:00,
2013-04-11 23:30:00,44.9,37.5,30.14,ENE,57,4.0,10.0,75,0.00,,,0.08,0.00,VWS V14.01,2013-04-12 03:30:00,
2013-04-11 23:34:00,44.7,36.2,30.14,ENE,70,8.0,11.0,72,0.00,,---,0.08,0.00,VWS V14.01,2013-04-12 03:34:00,
2013-04-11 23:39:00,44.7,35.9,30.14,ENE,70,5.0,11.0,71,0.00,,---,0.08,0.00,VWS V14.01,2013-04-12 03:39:00,
2013-04-11 23:44:00,44.6,35.8,30.14,East,86,7.0,11.0,71,0.00,,---,0.08,0.00,VWS V14.01,2013-04-12 03:44:00,
2013-04-11 23:45:00,44.9,36.4,30.14,ENE,74,7.0,10.0,72,0.00,,,0.08,0.00,VWS V14.01,2013-04-12 03:45:00,
2013-04-11 23:49:00,44.7,36.2,30.14,ENE,65,11.0,11.0,72,0.00,,---,0.08,0.00,VWS V14.01,2013-04-12 03:49:00,
2013-04-11 23:54:00,44.7,35.9,30.15,ENE,71,10.0,12.0,71,0.00,,---,0.08,0.00,VWS V14.01,2013-04-12 03:54:00,
2013-04-11 23:59:00,44.7,35.9,30.15,East,84,8.0,12.0,71,0.00,,---,0.08,0.00,VWS V14.01,2013-04-12 03:59:00,